{"data":{"norad_id":67973,"intl_designator":"2026-038N","name":"STARLINK-36900","alt_names":[],"object_type":"PAYLOAD","status":"ACTIVE","operator":null,"country":"US","launch_date":"2026-02-25","launch_site_code":"AFWTR","launch_vehicle":null,"mission":null,"orbit_class":"UNKNOWN","rcs_meters":null,"size_class":null,"mass_kg":null,"dimensions":null,"purposes":["comms"],"wikipedia_slug":null,"has_3d_model":false,"image_url":null,"decayed_at":null,"tle_current":{"epoch":"2026-05-24T23:47:22.970976Z","epoch_age_seconds":82536,"freshness":"FRESH","line1":"1 67973U 26038N   26144.99123809  .00014464  00000+0  44929-3 0  9998","line2":"2 67973  97.2824 155.0344 0002969 103.5186 256.6388 15.33456546 14935","mean_motion":15.33456546,"eccentricity":0.0002969,"inclination_deg":97.2824,"raan_deg":155.0344,"arg_perigee_deg":103.5186,"mean_anomaly_deg":256.6388,"bstar":0.00044929,"rev_number":1493,"period_min":93.90549759993,"perigee_km":463.47694347645,"apogee_km":467.54070036551,"semimajor_km":6843.645821921,"source":"CELESTRAK","updated_at":"2026-05-25T13:38:21.775401Z"}}}